sat.trackr.live / text

‹ back to catalog

KUIPER-00176

NORAD 65788 · 2025-217AC

PAYLOAD ACTIVE UNKNOWN

§ Identity

Operator
Country
US
Launch date
2025-09-25
Launch site
AFETR
Launch vehicle
Mass (kg)
RCS (m²)

External: N2YO · Heavens-Above · Gunter

§ Orbital elements

Epoch: 2026-09-20T23:30:35.013024Z

Period
97.30 min
Inclination
51.8990°
Eccentricity
0.0000832
Mean motion
14.79924973 rev/d
Perigee alt
629.0 km
Apogee alt
630.1 km
Semi-major
7,007.7 km
B*
2.4097e-4
RAAN
259.5227°
Arg perigee
49.4293°
Mean anomaly
310.6742°
Rev number
5,379

§ Raw data

KUIPER-001761 65788U 25217AC  26263.97957191  .00001616  00000+0  24097-3 0  99962 65788  51.8990 259.5227 0000832  49.4293 310.6742 14.79924973 53796

JSON: /api/v1/satellites/65788 · /tle

For live sub-satellite position, see the globe view (requires WebGL).

§ Visibility from observer

Set your observer location to see the next 7 days of passes ≥ 10°. The values pass through the URL so the page stays shareable.

No JS? Fill the form by hand. The geolocation button needs JavaScript.